| time (UTC) | temp F | wind direction | speed MPH | gust MPH | rain 1hr in | rain 24hr in | rain mn in | humidity % | barometer mb |
| 20260509234524 | 48 | 290 | 4.0 | 16.0 | 0.00 | 0.05 | 0.02 | 31 | 1012.8 |
| 20260509233025 | 49 | 301 | 3.0 | 12.0 | 0.00 | 0.05 | 0.02 | 30 | 1012.7 |
| 20260509231528 | 50 | 323 | 5.0 | 12.0 | 0.00 | 0.05 | 0.02 | 30 | 1012.7 |
| 20260509230016 | 49 | 311 | 5.0 | 15.0 | 0.00 | 0.05 | 0.02 | 31 | 1012.7 |
| 20260509224521 | 50 | 236 | 3.0 | 12.0 | 0.00 | 0.05 | 0.02 | 30 | 1012.5 |
| 20260509223023 | 50 | 263 | 5.0 | 15.0 | 0.00 | 0.05 | 0.02 | 29 | 1012.4 |
| 20260509221527 | 51 | 318 | 8.0 | 16.0 | 0.00 | 0.05 | 0.02 | 28 | 1012.1 |
| 20260509220028 | 50 | 305 | 4.0 | 14.0 | 0.00 | 0.05 | 0.02 | 30 | 1012.0 |
| 20260509214527 | 50 | 271 | 6.0 | 16.0 | 0.00 | 0.05 | 0.02 | 30 | 1012.0 |
| 20260509213023 | 51 | 302 | 7.0 | 17.0 | 0.00 | 0.05 | 0.02 | 29 | 1011.9 |
| 20260509211526 | 52 | 293 | 7.0 | 17.0 | 0.00 | 0.05 | 0.02 | 29 | 1011.7 |
| 20260509210033 | 52 | 287 | 6.0 | 14.0 | 0.00 | 0.05 | 0.02 | 29 | 1011.8 |
| 20260509204540 | 52 | 306 | 6.0 | 16.0 | 0.00 | 0.05 | 0.02 | 29 | 1011.5 |
| 20260509203020 | 52 | 313 | 5.0 | 13.0 | 0.00 | 0.05 | 0.02 | 32 | 1011.5 |
| 20260509201525 | 50 | 302 | 6.0 | 17.0 | 0.00 | 0.05 | 0.02 | 29 | 1011.5 |
| 20260509200011 | 50 | 321 | 6.0 | 21.0 | 0.00 | 0.05 | 0.02 | 30 | 1011.4 |
| 20260509194511 | 53 | 295 | 5.0 | 17.0 | 0.00 | 0.05 | 0.02 | 28 | 1011.2 |
| 20260509193025 | 52 | 282 | 6.0 | 16.0 | 0.00 | 0.05 | 0.02 | 29 | 1011.1 |
| 20260509191521 | 53 | 350 | 4.0 | 19.0 | 0.00 | 0.05 | 0.02 | 32 | 1011.0 |
| 20260509190005 | 52 | 257 | 6.0 | 19.0 | 0.00 | 0.05 | 0.02 | 31 | 1011.0 |
| 20260509184508 | 52 | 296 | 6.0 | 16.0 | 0.00 | 0.05 | 0.02 | 30 | 1010.9 |
| 20260509183016 | 51 | 290 | 6.0 | 17.0 | 0.00 | 0.05 | 0.02 | 31 | 1010.7 |
| 20260509181518 | 51 | 267 | 8.0 | 15.0 | 0.00 | 0.05 | 0.02 | 30 | 1010.7 |
| 20260509180023 | 51 | 296 | 6.0 | 15.0 | 0.00 | 0.05 | 0.02 | 33 | 1010.7 |
| 20260509174504 | 51 | 286 | 5.0 | 16.0 | 0.00 | 0.05 | 0.02 | 33 | 1010.6 |
| 20260509173010 | 49 | 321 | 6.0 | 13.0 | 0.00 | 0.05 | 0.02 | 35 | 1010.7 |
| 20260509171516 | 49 | 292 | 6.0 | 17.0 | 0.00 | 0.05 | 0.02 | 35 | 1010.5 |
| 20260509170018 | 50 | 280 | 4.0 | 15.0 | 0.00 | 0.05 | 0.02 | 33 | 1010.6 |
| 20260509164525 | 50 | 263 | 9.0 | 14.0 | 0.00 | 0.05 | 0.02 | 33 | 1010.6 |
| 20260509163016 | 48 | 326 | 5.0 | 16.0 | 0.00 | 0.05 | 0.02 | 38 | 1010.5 |
| 20260509161514 | 47 | 306 | 7.0 | 18.0 | 0.00 | 0.05 | 0.02 | 34 | 1010.4 |
| 20260509160020 | 47 | 286 | 3.0 | 20.0 | 0.00 | 0.05 | 0.02 | 37 | 1010.2 |
| 20260509154524 | 46 | 291 | 6.0 | 21.0 | 0.00 | 0.05 | 0.02 | 39 | 1010.1 |
| 20260509153029 | 45 | 301 | 5.0 | 14.0 | 0.00 | 0.05 | 0.02 | 39 | 1010.1 |
| 20260509151508 | 45 | 272 | 6.0 | 15.0 | 0.00 | 0.05 | 0.02 | 42 | 1010.0 |
| 20260509150019 | 45 | 244 | 4.0 | 15.0 | 0.00 | 0.05 | 0.02 | 43 | 1009.9 |
| 20260509144518 | 44 | 58 | 6.0 | 18.0 | 0.00 | 0.05 | 0.02 | 46 | 1009.6 |
| 20260509143024 | 43 | 286 | 5.0 | 14.0 | 0.00 | 0.05 | 0.02 | 43 | 1009.6 |
| 20260509141529 | 43 | 90 | 2.0 | 13.0 | 0.00 | 0.05 | 0.02 | 46 | 1009.4 |
| 20260509140010 | 42 | 289 | 6.0 | 15.0 | 0.00 | 0.05 | 0.02 | 48 | 1009.4 |
| 20260509134518 | 41 | 296 | 7.0 | 14.0 | 0.00 | 0.05 | 0.02 | 50 | 1009.2 |
| 20260509133021 | 40 | 306 | 2.0 | 10.0 | 0.00 | 0.05 | 0.02 | 53 | 1009.0 |
| 20260509131533 | 39 | 281 | 5.0 | 11.0 | 0.00 | 0.05 | 0.02 | 51 | 1008.9 |
| 20260509130029 | 38 | 315 | 2.0 | 12.0 | 0.00 | 0.05 | 0.02 | 53 | 1008.8 |
| 20260509124520 | 38 | 307 | 4.0 | 11.0 | 0.00 | 0.05 | 0.02 | 53 | 1008.5 |
| 20260509123023 | 37 | 301 | 5.0 | 15.0 | 0.00 | 0.05 | 0.02 | 52 | 1008.2 |
| 20260509121524 | 36 | 323 | 4.0 | 11.0 | 0.00 | 0.05 | 0.02 | 53 | 1007.8 |
| 20260509120028 | 36 | 300 | 2.0 | 10.0 | 0.00 | 0.05 | 0.02 | 55 | 1007.5 |
| 20260509114532 | 35 | 323 | 3.0 | 9.0 | 0.00 | 0.05 | 0.02 | 55 | 1007.3 |
| 20260509113014 | 35 | 261 | 3.0 | 9.0 | 0.00 | 0.05 | 0.02 | 54 | 1007.0 |
| 20260509111518 | 35 | 270 | 3.0 | 7.0 | 0.00 | 0.05 | 0.02 | 56 | 1006.6 |
| 20260509110004 | 35 | 312 | 2.0 | 9.0 | 0.00 | 0.05 | 0.02 | 55 | 1006.4 |
| 20260509104508 | 36 | 274 | 2.0 | 6.0 | 0.00 | 0.05 | 0.02 | 56 | 1006.2 |
| 20260509103010 | 37 | 277 | 0.0 | 9.0 | 0.00 | 0.05 | 0.02 | 55 | 1006.0 |
| 20260509101516 | 38 | 295 | 2.0 | 8.0 | 0.00 | 0.05 | 0.02 | 55 | 1006.0 |
| 20260509100029 | 39 | 273 | 1.0 | 7.0 | 0.00 | 0.05 | 0.02 | 58 | 1005.9 |
| 20260509094504 | 39 | 234 | 3.0 | 9.0 | 0.00 | 0.05 | 0.02 | 58 | 1005.7 |
| 20260509093009 | 40 | 306 | 2.0 | 9.0 | 0.00 | 0.05 | 0.02 | 59 | 1005.4 |
| 20260509091511 | 40 | 337 | 3.0 | 13.0 | 0.00 | 0.05 | 0.02 | 59 | 1005.2 |
| 20260509090021 | 40 | 304 | 2.0 | 10.0 | 0.00 | 0.05 | 0.02 | 63 | 1004.9 |
| 20260509084524 | 39 | 292 | 2.0 | 9.0 | 0.00 | 0.05 | 0.02 | 75 | 1004.7 |
| 20260509083005 | 39 | 290 | 0.0 | 2.0 | 0.00 | 0.05 | 0.02 | 75 | 1004.5 |
| 20260509081508 | 39 | 290 | 1.0 | 4.0 | 0.00 | 0.05 | 0.02 | 75 | 1004.2 |
| 20260509080013 | 39 | 290 | 0.0 | 2.0 | 0.00 | 0.05 | 0.02 | 75 | 1003.9 |
| 20260509074518 | 40 | 290 | 0.0 | 0.0 | 0.00 | 0.05 | 0.02 | 74 | 1003.8 |
| 20260509073022 | 40 | 290 | 0.0 | 0.0 | 0.00 | 0.05 | 0.02 | 73 | 1003.8 |
| 20260509071506 | 40 | 290 | 0.0 | 0.0 | 0.00 | 0.05 | 0.02 | 72 | 1003.7 |
| 20260509070010 | 40 | 290 | 0.0 | 0.0 | 0.00 | 0.05 | 0.02 | 71 | 1003.7 |
| 20260509064514 | 41 | 290 | 0.0 | 0.0 | 0.00 | 0.05 | 0.02 | 70 | 1003.8 |
| 20260509063019 | 41 | 290 | 0.0 | 0.0 | 0.00 | 0.05 | 0.02 | 69 | 1003.8 |
| 20260509061525 | 41 | 290 | 0.0 | 0.0 | 0.01 | 0.05 | 0.02 | 69 | 1003.6 |
| 20260509060012 | 41 | 290 | 0.0 | 1.0 | 0.02 | 0.05 | 0.02 | 68 | 1003.7 |
| 20260509054514 | 41 | 290 | 0.0 | 2.0 | 0.02 | 0.05 | 0.02 | 67 | 1003.8 |
| 20260509053016 | 41 | 279 | 1.0 | 7.0 | 0.03 | 0.05 | 0.02 | 66 | 1004.0 |
| 20260509051524 | 42 | 273 | 0.0 | 3.0 | 0.03 | 0.04 | 0.01 | 66 | 1003.8 |
| 20260509050023 | 42 | 273 | 2.0 | 8.0 | 0.02 | 0.03 | 0.00 | 65 | 1004.0 |
| 20260509044510 | 43 | 326 | 2.0 | 6.0 | 0.03 | 0.03 | 0.03 | 65 | 1004.2 |
| 20260509043012 | 44 | 313 | 0.0 | 2.0 | 0.02 | 0.02 | 0.02 | 63 | 1004.2 |
| 20260509041534 | 44 | 288 | 1.0 | 6.0 | 0.01 | 0.01 | 0.01 | 61 | 1004.3 |
| 20260509040022 | 46 | 46 | 0.0 | 6.0 | 0.01 | 0.01 | 0.01 | 59 | 1004.3 |
| 20260509034526 | 47 | 330 | 0.0 | 11.0 | 0.00 | 0.00 | 0.00 | 55 | 1004.5 |
| 20260509033012 | 49 | 333 | 2.0 | 12.0 | 0.00 | 0.00 | 0.00 | 44 | 1003.9 |
| 20260509031516 | 51 | 307 | 2.0 | 11.0 | 0.00 | 0.00 | 0.00 | 35 | 1003.4 |
| 20260509030021 | 50 | 51 | 2.0 | 7.0 | 0.00 | 0.00 | 0.00 | 32 | 1002.9 |
| 20260509024526 | 49 | 290 | 0.0 | 3.0 | 0.00 | 0.00 | 0.00 | 38 | 1002.4 |
| 20260509023026 | 49 | 290 | 0.0 | 1.0 | 0.00 | 0.00 | 0.00 | 35 | 1001.9 |
| 20260509021512 | 49 | 290 | 0.0 | 0.0 | 0.00 | 0.00 | 0.00 | 34 | 1001.9 |
| 20260509020023 | 50 | 290 | 0.0 | 0.0 | 0.00 | 0.00 | 0.00 | 33 | 1001.6 |
| 20260509014521 | 51 | 288 | 0.0 | 1.0 | 0.00 | 0.00 | 0.00 | 31 | 1001.4 |
| 20260509013005 | 53 | 290 | 0.0 | 2.0 | 0.00 | 0.00 | 0.00 | 30 | 1001.9 |
| 20260509011511 | 54 | 290 | 0.0 | 3.0 | 0.00 | 0.00 | 0.00 | 29 | 1002.0 |
| 20260509010033 | 55 | 290 | 2.0 | 4.0 | 0.00 | 0.00 | 0.00 | 28 | 1002.1 |
| 20260509004525 | 56 | 290 | 0.0 | 4.0 | 0.00 | 0.00 | 0.00 | 27 | 1002.2 |
| 20260509003021 | 57 | 321 | 3.0 | 12.0 | 0.00 | 0.00 | 0.00 | 26 | 1002.2 |
| 20260509001506 | 57 | 332 | 3.0 | 11.0 | 0.00 | 0.00 | 0.00 | 25 | 1002.4 |
| 20260509000009 | 57 | 277 | 3.0 | 10.0 | 0.00 | 0.00 | 0.00 | 23 | 1002.5 |